{"data":{"norad_id":62585,"epoch":"2026-05-25T03:51:39.468672Z","epoch_age_seconds":65071,"freshness":"FRESH","line1":"1 62585U 25007L   26145.16087348 -.00000038  00000+0  97092-4 0  9997","line2":"2 62585  54.9895  11.7982 0013643  49.5258 310.6885 13.80608397 71538","mean_motion":13.80608397,"eccentricity":0.0013643,"inclination_deg":54.9895,"raan_deg":11.7982,"arg_perigee_deg":49.5258,"mean_anomaly_deg":310.6885,"bstar":9.7092e-5,"rev_number":7153,"period_min":104.30184280561,"perigee_km":951.71583449538,"apogee_km":971.74339453975,"semimajor_km":7339.8666145176,"source":"CELESTRAK","updated_at":"2026-05-25T13:38:03.092723Z"}}